Weather History for San Antonio, TX

Change the Weather History Date:

Sunday, November 24, 2013

  Actual Average Record
Temperature  
Mean Temperature 40 °F 58 °F  
Max Temperature 43 °F 69 °F 85 °F (2010)
Min Temperature 36 °F 47 °F 25 °F (1970)
Degree Days  
Heating Degree Days 25 8  
Month to date heating degree days 115 123  
Since 1 July heating degree days 126 156  
Cooling Degree Days 0 1  
Month to date cooling degree days 73 56  
Year to date cooling degree days 3506 3111  
Moisture  
Dew Point 35 °F    
Average Humidity 80    
Maximum Humidity 89    
Minimum Humidity 70    
Precipitation  
Precipitation 0.44 in 0.06 in 2.63 in (1913)
Month to date precipitation 1.13 1.91  
Year to date precipitation 31.08 29.99  
Snow  
Snow 0.00 in - - ()
Month to date snowfall 0.0  
Since 1 July snowfall 0.0  
Since 1 September snowfall 0.0  
Snow Depth 0.00 in    
Sea Level Pressure  
Sea Level Pressure 30.37 in    
Wind  
Wind Speed 9 mph (NNE)    
Max Wind Speed 21 mph    
Max Gust Speed 26 mph    
Visibility 7 miles    
Events Rain , Thunderstorm    
T = Trace of Precipitation, MM = Missing Value Source: NWS Daily Summary

Daily Weather History Graph

Daily Weather History Graph

Search for Another Location

Airport:

Trip Planner

Search our weather history database for the weather conditions in past years. The results will help you decide how hot, cold, wet, or windy it might be!

Date:

Astronomy

Nov. 24, 2013 Rise Set
Actual Time 7:05 AM CST 5:35 PM CST
Civil Twilight 6:40 AM CST 6:01 PM CST
Nautical Twilight 6:10 AM CST 6:30 PM CST
Astronomical Twilight 5:42 AM CST 6:58 PM CST
Moon 11:47 PM CST (11/24) 12:07 PM CST (11/24)
Length of Visible Light 11h 20m
Length of Day
10h 29m
Waning Gibbous, 60% of the Moon is Illuminated
Nov 24
Waning Gibbous
Nov 25
Last Quarter
Dec 2
New
Dec 9
First Quarter
Dec 17
Full

Hourly Weather History & Observations

Time (CST) Temp. Windchill Dew Point Humidity Pressure Visibility Wind Dir Wind Speed Gust Speed Precip Events Conditions
12:25 AM 42.8 °F 38.6 °F 39.2 °F 87% 30.41 in 4.0 mi North 6.9 mph - 0.01 in Rain Light Rain
12:47 AM 42.8 °F 37.0 °F 39.2 °F 87% 30.40 in 4.0 mi NNE 10.4 mph - 0.02 in Rain Light Rain
12:51 AM 43.0 °F 37.2 °F 39.9 °F 89% 30.38 in 4.0 mi NNE 10.4 mph - 0.02 in Rain Light Rain
1:51 AM 43.0 °F 38.8 °F 39.0 °F 86% 30.39 in 4.0 mi North 6.9 mph - 0.00 in Rain Light Rain
2:51 AM 43.0 °F 38.2 °F 39.0 °F 86% 30.38 in 6.0 mi NNE 8.1 mph - 0.01 in Rain Light Rain
3:51 AM 43.0 °F 36.8 °F 37.9 °F 82% 30.39 in 10.0 mi North 11.5 mph - 0.00 in   Overcast
4:51 AM 43.0 °F 36.0 °F 36.0 °F 76% 30.39 in 10.0 mi North 13.8 mph - N/A   Overcast
5:51 AM 43.0 °F 36.4 °F 34.0 °F 71% 30.38 in 10.0 mi NNE 12.7 mph 20.7 mph N/A   Overcast
6:51 AM 43.0 °F 35.7 °F 34.0 °F 71% 30.40 in 10.0 mi NNE 15.0 mph - N/A   Overcast
7:51 AM 42.1 °F 35.7 °F 33.1 °F 70% 30.44 in 10.0 mi North 11.5 mph 21.9 mph 0.00 in Rain Light Rain
8:15 AM 41.0 °F 32.5 °F 33.8 °F 76% 30.40 in 2.0 mi NE 17.3 mph 26.5 mph 0.02 in Rain Rain
8:25 AM 39.2 °F 31.6 °F 33.8 °F 81% 30.43 in 3.0 mi NNE 12.7 mph 25.3 mph 0.09 in Rain Rain
8:51 AM 39.9 °F 34.5 °F 35.1 °F 83% 30.43 in 6.0 mi NNE 8.1 mph - 0.12 in Rain Light Rain
9:51 AM 39.9 °F 35.1 °F 35.1 °F 83% 30.45 in 8.0 mi North 6.9 mph - 0.01 in Rain Light Rain
10:51 AM 39.0 °F 31.4 °F 35.1 °F 86% 30.43 in 8.0 mi NNE 12.7 mph 18.4 mph 0.00 in Rain Light Rain
11:46 AM 39.2 °F 31.2 °F 35.6 °F 87% 30.43 in 10.0 mi North 13.8 mph 17.3 mph 0.04 in   Overcast
11:51 AM 39.0 °F 31.8 °F 35.1 °F 86% 30.41 in 10.0 mi North 11.5 mph - 0.04 in   Overcast
12:51 PM 39.9 °F 33.9 °F 35.1 °F 83% 30.37 in 9.0 mi NNE 9.2 mph - N/A   Overcast
1:46 PM 41.0 °F 36.4 °F 35.6 °F 81% 30.37 in 8.0 mi North 6.9 mph - 0.00 in Rain Light Rain
1:51 PM 41.0 °F 35.8 °F 36.0 °F 82% 30.35 in 8.0 mi North 8.1 mph - 0.00 in Rain Light Rain
2:27 PM 39.2 °F 33.0 °F 35.6 °F 87% 30.35 in 8.0 mi NNE 9.2 mph - 0.00 in   Overcast
2:51 PM 41.0 °F 34.7 °F 36.0 °F 82% 30.33 in 8.0 mi NNE 10.4 mph - 0.00 in   Overcast
3:51 PM 39.9 °F 33.4 °F 35.1 °F 83% 30.33 in 10.0 mi NNE 10.4 mph - N/A   Overcast
4:51 PM 39.9 °F 35.1 °F 36.0 °F 86% 30.33 in 10.0 mi North 6.9 mph - N/A   Overcast
5:51 PM 39.9 °F 35.1 °F 35.1 °F 83% 30.32 in 10.0 mi NE 6.9 mph - N/A   Overcast
6:51 PM 39.0 °F 32.8 °F 34.0 °F 82% 30.32 in 9.0 mi NE 9.2 mph - 0.00 in   Light Drizzle
7:13 PM 37.4 °F 31.4 °F 35.6 °F 93% 30.34 in 5.0 mi ENE 8.1 mph - 0.00 in   Light Drizzle
7:51 PM 37.9 °F 31.5 °F 34.0 °F 86% 30.32 in 10.0 mi NE 9.2 mph - 0.00 in   Light Drizzle
8:44 PM 37.4 °F 33.8 °F 33.8 °F 87% 30.35 in 5.0 mi NE 4.6 mph - 0.00 in   Light Drizzle
8:51 PM 37.9 °F 35.5 °F 34.0 °F 86% 30.34 in 5.0 mi NE 3.5 mph - 0.00 in   Light Drizzle
9:51 PM 37.0 °F 32.4 °F 35.1 °F 93% 30.33 in 4.0 mi NNE 5.8 mph - 0.00 in   Light Drizzle
10:14 PM 37.4 °F 31.4 °F 33.8 °F 87% 30.34 in 5.0 mi ENE 8.1 mph - 0.00 in   Overcast
10:29 PM 37.4 °F 30.3 °F 33.8 °F 87% 30.32 in 2.0 mi East 10.4 mph - 0.04 in Rain , Thunderstorm Heavy Thunderstorms and Rain
10:35 PM 37.4 °F 32.1 °F 33.8 °F 87% 30.32 in 2.0 mi East 6.9 mph - 0.10 in Rain , Thunderstorm Heavy Thunderstorms and Rain
10:46 PM 35.6 °F 28.0 °F 33.8 °F 93% 30.32 in 3.0 mi ENE 10.4 mph - 0.13 in Rain , Thunderstorm Thunderstorms and Rain
10:51 PM 36.0 °F 31.1 °F 34.0 °F 93% 30.32 in 2.0 mi ENE 5.8 mph - 0.15 in Rain , Thunderstorm Thunderstorms and Rain
11:07 PM 35.6 °F 30.7 °F 33.8 °F 93% 30.32 in 3.0 mi ENE 5.8 mph - 0.06 in Rain Light Rain
11:51 PM 37.0 °F 31.6 °F 34.0 °F 89% 30.32 in 5.0 mi North 6.9 mph - 0.09 in Rain Light Rain